Regional Weather Roundup
Issued by NWS

Home | Current Version | Previous Version | Text Only | Print | Product List | Glossary Off
Versions: 1 2 3 4 5 6 7 8 9 10 11 12 13 14 15 16 17 18 19 20 21 22 23 24 25 26 27 28 29 30 31 32 33 34 35 36 37 38 39 40 41 42 43 44 45 46 47 48 49 50

000
ASUS43 KFSD 290610
RWRSD

WEATHER ROUNDUP FOR SOUTH DAKOTA
NATIONAL WEATHER SERVICE SIOUX FALLS SD
100 AM CDT SAT AUG 29 2015

NOTE: "FAIR" INDICATES FEW OR NO CLOUDS BELOW 12,000 FEET WITH NO
SIGNIFICANT WEATHER AND/OR OBSTRUCTIONS TO VISIBILITY.


SDZ001>005-009-010-012>017-290700-
NORTHWEST AND NORTH CENTRAL SOUTH DAKOTA

CITY           SKY/WX    TMP DP  RH WIND       PRES   REMARKS
BUFFALO          N/A     64  48  56 W5        29.98S
FAITH            N/A     65  58  78 SW7       30.02R
MOBRIDGE       CLEAR     68  68 100 SE8       29.94S
$$

SDZ012>016-024>037-041>051-057-063-072>074-290700-
SOUTHWEST AND SOUTH CENTRAL SOUTH DAKOTA

CITY           SKY/WX    TMP DP  RH WIND       PRES   REMARKS
RAPID CTY ARPT CLEAR     60  57  89 NW3       30.08S
PIERRE         CLEAR     66  64  93 S8        29.98F
CUSTER         CLEAR     56  47  71 NW5       30.25S
ELLSWORTH AFB  CLEAR     67  58  72 SW7       30.07S
PHILIP         CLEAR     65  61  87 W5        30.02R
PINE RIDGE     CLEAR     59  51  75 NW3       30.11S
WINNER         FAIR      65  61  87 S8        30.04S
$$

SDZ004>011-016>023-039-040-290700-
NORTHEAST SOUTH DAKOTA

CITY           SKY/WX    TMP DP  RH WIND       PRES   REMARKS
ABERDEEN       CLEAR     66  63  90 S10       29.97S
WATERTOWN      FAIR      61  59  93 S9        30.02S
BROOKINGS      FAIR      57  54  88 CALM      30.05S
SISSETON         N/A     62  59  90 S6        29.96F
$$

SDZ017-020-022-023-036>040-048>070-290700-
SOUTHEAST SOUTH DAKOTA

CITY           SKY/WX    TMP DP  RH WIND       PRES   REMARKS
SIOUX FALLS    FAIR      56  55  97 CALM      30.04R
HURON          CLEAR     64  62  93 S9        30.00F
CHAMBERLAIN    CLEAR     62  62  99 S6        30.02F
MITCHELL       CLEAR     62  61  96 S8        30.03S
YANKTON        FAIR      57  55  94 CALM      30.03S
$$

ABBREVIATIONS USED IN REMARKS
   TC - TEMPERATURE IN CELSIUS
  WCI - WIND CHILL INDEX
   HX - HEAT INDEX
  VSB - VISIBILITY




USA.gov is the U.S. government's official web portal to all federal, state and local government web resources and services.